KF0EZB Weather Reports


Display with metric or nautical units.
time (UTC)temp
F
wind
direction
speed
MPH
gust
MPH
rain 1hr
in
rain 24hr
in
rain mn
in
humidity
%
barometer
mb
20260504070258 64 233 2.0 5.0 0.00 0.00 0.00 44 1004.7
20260504060219 66 187 1.0 3.0 0.00 0.00 0.00 40 1005.0
20260504050646 67 221 2.0 3.0 0.00 0.00 0.00 39 1005.3
20260504050143 67 167 1.0 3.0 0.00 0.00 0.00 38 1005.3
20260504045641 67 105 2.0 5.0 0.00 0.00 0.00 38 1005.3
20260504045140 67 175 0.0 3.0 0.00 0.00 0.00 38 1005.4
20260504044638 67 183 1.0 2.0 0.00 0.00 0.00 38 1005.4
20260504044135 68 214 2.0 3.0 0.00 0.00 0.00 37 1005.5
20260504043632 68 204 2.0 7.0 0.00 0.00 0.00 37 1005.5
20260504043129 68 192 2.0 7.0 0.00 0.00 0.00 36 1005.6
20260504042626 69 228 2.0 6.0 0.00 0.00 0.00 36 1005.5
20260504042123 69 204 2.0 6.0 0.00 0.00 0.00 35 1005.5
20260504041619 69 126 1.0 6.0 0.00 0.00 0.00 35 1005.5
20260504041115 70 190 2.0 5.0 0.00 0.00 0.00 34 1005.8
20260504040613 71 187 3.0 7.0 0.00 0.00 0.00 34 1005.7
20260504040109 71 249 6.0 9.0 0.00 0.00 0.00 33 1005.8
20260504035606 71 196 1.0 6.0 0.00 0.00 0.00 33 1005.7
20260504035103 71 209 2.0 9.0 0.00 0.00 0.00 32 1005.9
20260504034600 72 188 3.0 5.0 0.00 0.00 0.00 32 1005.9
20260504034057 72 190 0.0 2.0 0.00 0.00 0.00 32 1005.8
20260504033555 72 207 2.0 7.0 0.00 0.00 0.00 31 1005.8
20260504033052 72 175 1.0 7.0 0.00 0.00 0.00 30 1005.9
20260504032549 73 190 1.0 3.0 0.00 0.00 0.00 30 1005.7
20260504032046 73 211 2.0 3.0 0.00 0.00 0.00 30 1005.8
20260504031543 73 172 3.0 9.0 0.00 0.00 0.00 30 1005.8
20260504031039 72 144 2.0 7.0 0.00 0.00 0.00 30 1005.5
20260504030537 71 203 2.0 7.0 0.00 0.00 0.00 31 1005.5
20260504030032 71 202 2.0 3.0 0.00 0.00 0.00 30 1005.8
20260504025530 71 136 0.0 0.0 0.00 0.00 0.00 30 1005.7
20260504025026 71 237 2.0 6.0 0.00 0.00 0.00 30 1005.7
20260504024523 70 177 0.0 5.0 0.00 0.00 0.00 31 1005.5
20260504024020 70 174 1.0 3.0 0.00 0.00 0.00 32 1005.6
20260504023517 70 185 0.0 2.0 0.00 0.00 0.00 32 1005.5
20260504023013 70 238 2.0 3.0 0.00 0.00 0.00 31 1005.8
20260504022509 70 155 1.0 2.0 0.00 0.00 0.00 31 1005.3
20260504022006 71 199 2.0 3.0 0.00 0.00 0.00 31 1005.8
20260504021503 71 157 0.0 1.0 0.00 0.00 0.00 31 1005.5
20260504021000 71 164 1.0 1.0 0.00 0.00 0.00 31 1005.5
20260504020456 71 161 0.0 0.0 0.00 0.00 0.00 30 1005.4
20260504015953 72 157 0.0 0.0 0.00 0.00 0.00 30 1005.6
20260504015449 72 188 0.0 0.0 0.00 0.00 0.00 30 1005.5
20260504014945 72 154 0.0 1.0 0.00 0.00 0.00 30 1005.3
20260504014442 73 164 0.0 1.0 0.00 0.00 0.00 29 1005.5
20260504013938 73 182 0.0 2.0 0.00 0.00 0.00 29 1005.4
20260504013437 74 184 0.0 1.0 0.00 0.00 0.00 29 1005.3
20260504012933 74 162 1.0 2.0 0.00 0.00 0.00 28 1005.3
20260504012431 75 164 0.0 2.0 0.00 0.00 0.00 27 1005.5
20260504011928 76 167 0.0 1.0 0.00 0.00 0.00 26 1005.5
20260504011425 77 164 0.0 1.0 0.00 0.00 0.00 25 1005.6
20260504010920 78 181 0.0 0.0 0.00 0.00 0.00 24 1005.5
20260504010417 78 203 0.0 0.0 0.00 0.00 0.00 24 1005.3
20260504005913 79 168 1.0 1.0 0.00 0.00 0.00 23 1005.8
20260504005410 80 174 0.0 2.0 0.00 0.00 0.00 23 1005.5
20260504004908 80 193 0.0 0.0 0.00 0.00 0.00 22 1005.6
20260504004405 80 160 2.0 5.0 0.00 0.00 0.00 22 1005.7
20260504003902 81 187 2.0 3.0 0.00 0.00 0.00 21 1005.6
20260504003358 81 297 2.0 5.0 0.00 0.00 0.00 21 1005.7
20260504002855 81 257 3.0 3.0 0.00 0.00 0.00 22 1005.7
20260504002352 81 159 2.0 6.0 0.00 0.00 0.00 22 1005.6
20260504001849 81 171 0.0 5.0 0.00 0.00 0.00 22 1005.8
20260504001347 81 177 2.0 3.0 0.00 0.00 0.00 21 1006.0
20260504000843 81 261 5.0 6.0 0.00 0.00 0.00 20 1005.8
20260504000340 82 159 0.0 0.0 0.00 0.00 0.00 21 1006.1
20260503235838 82 196 0.0 0.0 0.00 0.00 0.00 20 1006.1
20260503235335 82 184 0.0 1.0 0.00 0.00 0.00 20 1006.2
20260503234833 82 194 0.0 6.0 0.00 0.00 0.00 19 1006.2
20260503234330 83 25 2.0 8.0 0.00 0.00 0.00 19 1006.3
20260503233828 84 195 0.0 7.0 0.00 0.00 0.00 19 1006.3
20260503233324 86 210 3.0 6.0 0.00 0.00 0.00 18 1006.8
20260503232820 85 247 0.0 8.0 0.00 0.00 0.00 17 1006.5
20260503232318 85 206 0.0 5.0 0.00 0.00 0.00 18 1006.7
20260503231816 85 202 0.0 8.0 0.00 0.00 0.00 18 1006.4
20260503231312 86 203 0.0 0.0 0.00 0.00 0.00 18 1006.5
20260503230808 86 233 2.0 5.0 0.00 0.00 0.00 17 1006.8
20260503230306 86 209 1.0 2.0 0.00 0.00 0.00 17 1006.9
20260503225803 86 207 2.0 7.0 0.00 0.00 0.00 17 1007.0
20260503225258 85 239 4.0 11.0 0.00 0.00 0.00 17 1007.1
20260503224755 84 233 0.0 7.0 0.00 0.00 0.00 18 1007.2
20260503224253 84 292 1.0 5.0 0.00 0.00 0.00 18 1007.2
20260503223750 84 270 1.0 14.0 0.00 0.00 0.00 17 1006.9
20260503223248 85 265 5.0 9.0 0.00 0.00 0.00 17 1007.1
20260503222744 85 265 5.0 9.0 0.00 0.00 0.00 17 1007.1
20260503222242 86 247 0.0 10.0 0.00 0.00 0.00 17 1007.3
20260503221740 86 257 1.0 7.0 0.00 0.00 0.00 17 1007.4
20260503221237 87 208 0.0 5.0 0.00 0.00 0.00 16 1007.6
20260503220734 88 290 3.0 6.0 0.00 0.00 0.00 16 1007.5
20260503220231 87 257 5.0 9.0 0.00 0.00 0.00 15 1007.4
20260503215727 87 210 2.0 3.0 0.00 0.00 0.00 16 1007.6
20260503215225 87 225 0.0 8.0 0.00 0.00 0.00 15 1007.6
20260503214723 88 308 3.0 6.0 0.00 0.00 0.00 14 1007.9
20260503214219 88 214 8.0 11.0 0.00 0.00 0.00 14 1007.6
20260503213717 88 220 2.0 5.0 0.00 0.00 0.00 16 1007.8
20260503213214 88 312 2.0 7.0 0.00 0.00 0.00 15 1007.9
20260503212711 87 225 4.0 11.0 0.00 0.00 0.00 15 1008.0
20260503212209 87 218 3.0 13.0 0.00 0.00 0.00 15 1008.0
20260503211706 87 203 0.0 7.0 0.00 0.00 0.00 16 1008.2
20260503211202 87 277 5.0 9.0 0.00 0.00 0.00 15 1008.1
20260503210658 87 178 1.0 6.0 0.00 0.00 0.00 15 1008.2
20260503210155 88 250 5.0 10.0 0.00 0.00 0.00 15 1008.5
20260503205650 87 282 5.0 8.0 0.00 0.00 0.00 14 1008.7
20260503205147 87 184 2.0 7.0 0.00 0.00 0.00 16 1008.8
20260503204643 87 177 0.0 0.0 0.00 0.00 0.00 16 1009.0
20260503204141 87 179 1.0 5.0 0.00 0.00 0.00 16 1009.0
20260503203638 87 229 1.0 9.0 0.00 0.00 0.00 16 1009.2
20260503203136 88 245 1.0 9.0 0.00 0.00 0.00 16 1009.1
20260503202633 87 327 5.0 11.0 0.00 0.00 0.00 16 1009.3
20260503202131 88 233 2.0 7.0 0.00 0.00 0.00 16 1009.2
20260503201629 87 292 2.0 10.0 0.00 0.00 0.00 17 1009.5
20260503201126 87 247 0.0 5.0 0.00 0.00 0.00 17 1009.3
20260503200622 87 285 6.0 13.0 0.00 0.00 0.00 17 1009.6
20260503200118 87 279 0.0 2.0 0.00 0.00 0.00 17 1009.8
20260503195615 88 318 3.0 9.0 0.00 0.00 0.00 17 1009.9
20260503195112 87 313 3.0 3.0 0.00 0.00 0.00 19 1009.8
20260503194609 86 302 8.0 15.0 0.00 0.00 0.00 18 1009.7
20260503194104 86 237 4.0 10.0 0.00 0.00 0.00 17 1010.3
20260503193601 86 195 5.0 10.0 0.00 0.00 0.00 17 1010.0
20260503193056 86 204 5.0 9.0 0.00 0.00 0.00 18 1010.3
20260503192553 86 222 5.0 7.0 0.00 0.00 0.00 18 1010.4
20260503192049 86 256 3.0 6.0 0.00 0.00 0.00 18 1010.4
20260503191545 86 191 1.0 6.0 0.00 0.00 0.00 20 1010.3
20260503191043 86 297 0.0 2.0 0.00 0.00 0.00 20 1010.5
20260503190539 86 255 1.0 5.0 0.00 0.00 0.00 19 1010.5
20260503190037 85 206 1.0 7.0 0.00 0.00 0.00 20 1010.8
20260503185533 85 277 7.0 11.0 0.00 0.00 0.00 19 1010.7
20260503185033 85 224 0.0 6.0 0.00 0.00 0.00 20 1010.9
20260503184529 85 262 2.0 7.0 0.00 0.00 0.00 19 1010.7
20260503184026 85 226 2.0 11.0 0.00 0.00 0.00 20 1010.9
20260503183522 84 188 3.0 6.0 0.00 0.00 0.00 20 1011.1
20260503183020 85 203 4.0 10.0 0.00 0.00 0.00 19 1011.2
20260503182518 85 289 5.0 9.0 0.00 0.00 0.00 19 1011.4
20260503182015 85 237 3.0 14.0 0.00 0.00 0.00 19 1011.4
20260503181512 84 262 3.0 9.0 0.00 0.00 0.00 19 1011.4
20260503181008 85 274 0.0 6.0 0.00 0.00 0.00 19 1011.6
20260503180506 84 282 3.0 6.0 0.00 0.00 0.00 19 1011.7
20260503180003 84 207 3.0 6.0 0.00 0.00 0.00 19 1011.6
20260503175501 84 188 6.0 13.0 0.00 0.00 0.00 20 1012.2
20260503174957 84 307 4.0 7.0 0.00 0.00 0.00 19 1012.3
20260503174455 84 282 7.0 9.0 0.00 0.00 0.00 19 1012.4
20260503173950 84 216 3.0 11.0 0.00 0.00 0.00 20 1012.3
20260503173446 83 204 3.0 6.0 0.00 0.00 0.00 19 1012.5
20260503172943 83 147 4.0 9.0 0.00 0.00 0.00 19 1012.3
20260503172440 83 138 3.0 8.0 0.00 0.00 0.00 19 1012.4
20260503171937 82 227 3.0 11.0 0.00 0.00 0.00 20 1012.5
20260503171433 82 238 4.0 8.0 0.00 0.00 0.00 20 1012.8
20260503170931 82 260 7.0 10.0 0.00 0.00 0.00 18 1012.8
20260503170427 82 219 5.0 10.0 0.00 0.00 0.00 19 1012.7
20260503150819 74 306 5.0 8.0 0.00 0.00 0.00 32 1013.8
20260503150315 74 249 5.0 9.0 0.00 0.00 0.00 32 1013.7
20260503140240 64 251 4.0 6.0 0.00 0.00 0.00 48 1014.1
20260503131209 55 192 1.0 2.0 0.00 0.00 0.00 65 1014.6
20260503130707 54 224 0.0 1.0 0.00 0.00 0.00 66 1014.5
20260503130204 54 231 0.0 1.0 0.00 0.00 0.00 66 1014.6
20260503120130 49 193 0.0 0.0 0.00 0.00 0.00 75 1014.3
20260503110557 50 213 0.0 0.0 0.00 0.00 0.00 72 1014.3
20260503090444 53 239 4.0 6.0 0.00 0.00 0.00 67 1014.9
20260503081410 52 221 0.0 0.0 0.00 0.00 0.00 68 1015.4
20260503080908 52 189 0.0 1.0 0.00 0.00 0.00 68 1015.6
20260503080404 52 189 0.0 0.0 0.00 0.00 0.00 67 1015.4
20260503072840 53 171 0.0 1.0 0.00 0.00 0.00 63 1016.0
20260503072338 53 248 0.0 1.0 0.00 0.00 0.00 62 1015.8
20260503071834 53 206 0.0 2.0 0.00 0.00 0.00 62 1015.9
20260503071331 53 223 0.0 3.0 0.00 0.00 0.00 61 1015.9